CAPE
0 0 0 0 0 0 0 0 0 10 0 0 0 0 154 999 909 544 293 103 44 56 34 63 35 5 48 52 92 131 98 115 48 70 135 74 111 63 2 15 5 5 9 0
0 0 0 0 0 0 0 0 0 0 0 0 0 6 312 786 658 398 272 138 22 18 5 12 9 9 4 0 2 0 49 46 113 133 59 48 69 88 42 16 5 15 14 1
0 0 0 0 0 0 0 0 0 0 0 0 0 116 300 287 295 174 64 49 29 33 6 7 5 3 6 2 9 13 19 12 22 48 31 24 5 7 8 27 28 28 11 16
0 0 0 0 0 0 0 0 0 0 0 0 0 0 240 291 264 85 65 7 16 82 1 6 6 8 6 8 14 24 28 41 35 17 39 32 32 5 0 0 65 10 10 0
0 0 0 0 0 0 0 0 0 0 0 0 0 54 74 294 159 68 0 1 12 4 0 1 23 8 12 20 26 23 23 38 5 35 19 0 0 59 48 0 0 1 9 22
3 0 0 0 0 0 0 0 0 0 0 0 1 79 365 472 121 28 13 10 1 0 19 43 33 41 14 43 47 51 47 66 41 7 0 0 52 5 0 4 0 3 6 13
28 10 2 4 6 0 0 0 0 0 0 12 2 328 396 138 46 8 0 0 5 10 4 4 11 16 26 23 12 11 3 6 3 1 4 4 10 24 19 7 8 16 11 42
4 91 24 19 0 0 0 0 0 0 0 0 0 144 274 17 1 30 5 0 0 0 0 1 2 0 0 2 1 0 0 0 0 5 10 19 28 23 16 22 23 32 43 31
0 45 33 1 0 0 1 12 1 3 0 18 166 95 64 7 0 2 10 13 0 0 0 0 0 3 0 3 0 5 1 0 0 0 5 18 17 26 29 24 27 28 28 76
0 0 14 2 0 6 22 0 1 2 0 0 37 30 69 142 107 59 3 0 2 0 0 0 0 4 0 1 0 0 0 0 3 1 8 21 27 18 12 16 7 5 27 30
2 0 0 0 0 1 0 28 30 35 17 3 19 71 58 47 31 6 6 4 0 0 1 0 1 2 0 0 0 0 0 0 0 1 12 5 16 0 5 20 16 5 7 10
0 0 0 0 0 27 29 69 56 29 4 1 30 73 20 0 0 0 0 0 0 4 0 0 0 0 0 0 0 0 0 2 2 0 16 18 13 3 0 0 1 13 29 26
0 0 0 0 0 14 19 18 56 27 4 51 9 33 37 2 9 4 6 17 23 9 0 0 0 0 0 0 0 1 0 2 8 1 22 28 5 10 6 25 21 22 21 7
64 14 16 3 0 0 0 24 30 25 9 10 36 43 29 10 12 0 0 0 0 0 0 0 0 0 0 2 0 5 21 21 8 3 7 4 20 41 38 24 23 15 6 5
11 45 3 0 0 0 3 69 25 81 52 89 42 21 0 0 1 3 0 0 0 0 2 0 0 0 0 0 8 17 22 15 0 11 13 12 25 25 16 14 3 2 0 7
37 0 0 0 0 51 30 31 86 57 39 0 1 0 0 13 11 3 0 0 0 0 0 0 0 1 0 0 7 7 19 6 1 36 18 15 4 0 2 0 0 0 0 0
39 13 0 0 95 88 19 46 13 0 0 0 0 5 11 12 9 0 0 0 0 0 0 0 0 0 0 0 26 19 16 22 7 13 14 5 1 0 14 2 0 0 0 0
38 34 61 26 8 15 60 21 1 3 0 0 0 0 1 0 0 0 0 0 0 0 0 0 0 0 0 0 0 19 19 8 0 10 1 3 0 0 0 0 0 0 0 0
44 107 20 2 14 70 71 91 5 28 0 0 3 0 5 0 0 0 0 0 0 0 1 0 0 0 0 0 4 7 1 8 12 0 0 0 0 0 0 0 0 0 0 0
283 180 51 31 37 43 57 10 30 40 0 0 0 0 0 0 0 0 0 1 0 1 0 0 0 0 0 0 0 0 0 0 0 0 0 0 0 0 0 0 0 0 0 0
58 16 64 39 54 46 49 1 0 0 13 4 0 0 0 0 0 0 2 0 1 6 0 0 0 0 0 0 0 0 0 0 0 0 0 0 0 0 0 0 0 0 0 0
72 48 7 0 4 12 28 23 3 1 1 3 0 0 0 0 0 1 0 1 0 0 0 0 0 0 0 0 0 0 0 0 0 0 0 0 0 0 0 0 0 0 0 0
72 35 7 77 68 28 0 0 1 0 0 0 0 0 0 0 0 0 0 0 0 0 0 0 0 0 0 0 0 0 0 0 0 0 0 0 0 0 0 0 0 0 0 0
146 90 165 67 57 83 5 0 0 0 0 0 0 0 0 0 0 0 13 0 0 0 0 0 0 0 0 0 0 0 0 0 0 0 0 0 0 0 0 0 0 0 0 0
189 174 142 57 24 0 2 0 0 0 0 0 0 0 0 3 0 17 0 0 0 0 0 0 0 0 0 0 0 0 0 0 0 0 0 0 0 0 0 0 0 0 0 0
96 68 119 61 98 57 2 0 0 0 0 0 0 0 21 0 20 1 0 0 0 0 0 0 0 0 0 0 0 0 0 0 0 0 0 0 0 9 0 0 0 0 0 1
CIN
0 0 0 0 0 0 0 0 -9 -9 0 0 0 0 -129 -196 -165 -169 -121 -222 -462 -162 0 -166 -145 -1 -83 -87 -39 -9 -1 -1 -2 -17 -2 -2 -1 -1 -26 -119 -49 -102 -92 0
0 0 0 0 0 0 0 0 0 0 0 0 0 -99 -285 -171 -125 -73 -68 -335 -407 -262 0 -81 -39 -1 0 0 -1 -1 -4 -1 0 0 -3 -5 -2 -2 -5 -37 -49 -51 0 0
0 0 0 0 0 0 0 0 0 0 0 0 0 -145 -100 -95 -123 -78 -32 -24 -291 -223 0 0 0 0 0 0 0 -13 -6 -5 -2 -3 0 -4 -15 -8 -13 -45 -53 -3 -1 -1
0 0 0 0 0 0 0 0 0 0 0 0 0 0 -49 -66 -42 -60 -139 -16 -89 -110 0 -76 0 0 0 0 0 0 -1 -1 0 -12 -3 -6 -7 -2 0 0 -39 -5 -17 -9
0 0 0 0 0 0 0 0 0 0 0 0 0 -92 -191 -98 -171 -113 -1 -6 -111 -2 0 -12 -120 -9 -159 0 0 0 0 0 -29 -1 -8 0 0 -36 -40 -2 0 -5 -33 -40
-4 0 0 0 0 0 0 0 0 0 0 0 -17 -49 -106 -65 -60 -35 -8 -4 0 -1 -122 -124 -60 -18 0 0 -1 -4 -3 0 -2 -37 0 0 -15 -1 0 -45 -3 -39 -35 -39
-14 -58 -17 -30 -33 0 0 0 0 0 0 -11 -20 -137 -37 -40 -58 -34 0 0 -15 -42 -16 0 0 0 0 -1 -5 -5 -7 -1 -9 -2 -1 -9 -25 -22 -14 -8 -4 -14 0 -19
-8 -15 -25 -22 0 0 0 0 0 0 0 0 0 -89 -2 -48 -18 -2 -10 -51 0 0 0 -1 0 -1 0 -2 -1 0 0 0 0 -13 -3 -3 -27 -18 -22 -30 -27 -28 -19 -16
-13 -29 -11 -3 0 0 -13 -15 -4 -2 -1 -9 -69 -76 -46 -6 -4 -11 -7 -6 -2 0 0 0 0 -1 -1 -1 0 -6 -17 0 0 0 -28 -26 -33 -30 -27 -5 -10 -27 -52 -43
-10 0 -92 -37 0 -18 -8 0 -2 -3 0 0 -55 -108 -44 -14 0 -9 -1 -5 -29 0 0 0 0 -1 0 -10 -2 0 0 0 -18 -7 -23 -21 -44 -24 -15 -63 -5 -2 -52 -22
-6 0 0 0 0 -7 0 -42 -25 -15 -15 -2 -4 -46 -24 -9 -1 0 -1 -5 -22 0 -6 -4 -4 -9 -4 0 0 0 0 0 0 -5 -10 -10 -8 0 -12 -42 -65 -55 -53 -13
0 0 0 0 0 -7 -3 -44 -16 -3 -2 -3 -4 -27 -10 0 0 0 0 0 0 0 -24 0 -5 0 0 0 0 0 0 -18 -18 -1 -10 -8 -11 -20 0 0 -3 -12 -15 -11
0 0 0 0 0 -5 -6 -26 -58 -26 -1 -20 -7 -5 -45 -31 -10 -2 -1 -1 -1 -5 0 0 0 0 0 0 0 -22 0 -18 -16 -21 -6 -23 -11 -36 -36 -30 -45 -49 -34 -56
-104 -23 -32 -16 0 0 0 -24 -52 -84 -79 -48 -3 -14 -6 -1 -23 0 -2 0 0 0 0 0 0 0 0 -5 0 -26 -30 -29 -28 -18 -18 -9 -18 -23 -23 -18 -10 -2 -1 -29
-99 -52 -10 0 0 0 -1 -38 -73 -83 -21 -49 -8 -2 -1 0 -22 -3 0 0 0 0 -2 0 0 0 -5 0 -28 -37 -36 -16 0 -6 -7 -12 -23 -31 -26 -16 -13 -16 0 -3
-60 0 0 0 0 -4 -10 -2 -21 -9 -26 -1 -1 0 0 -27 -3 -5 -3 0 -1 -1 0 0 0 -2 0 0 0 -1 -24 -6 -10 -6 -12 -19 -20 0 -8 0 0 0 0 0
-53 -29 0 -1 -16 -19 -39 -4 -13 0 0 0 0 -4 -3 -14 -8 -2 0 0 0 0 0 0 -1 0 0 0 -23 -6 -9 -11 -17 -15 -12 -6 0 -1 -6 -1 0 0 0 0
-32 -37 -11 -15 -19 -10 -13 -1 -21 -2 0 0 0 0 -4 0 0 0 0 0 0 0 0 -7 -3 0 0 0 0 -13 -19 -21 -12 -22 0 0 0 0 0 0 0 0 0 0
-18 -27 -19 -4 -28 -26 -10 -6 -9 -16 0 0 -16 -2 -3 0 0 0 0 0 0 0 -20 -3 0 0 0 0 -6 -21 -5 -12 -11 0 0 0 0 0 0 0 0 0 0 0
-38 -30 -17 -16 -4 -7 -3 -23 -11 -14 -1 -1 0 0 0 0 0 0 0 -1 0 -31 0 0 0 0 0 0 0 0 0 0 0 0 0 0 0 0 0 0 0 0 0 0
-31 -17 -15 -19 -8 -15 -10 -5 0 0 -6 -1 -2 0 0 0 0 0 0 0 -16 -9 0 0 0 0 0 0 0 0 0 0 0 0 0 0 0 0 0 0 0 0 0 0
-21 -18 -30 0 -5 -11 -66 -60 -16 -8 -2 -5 0 0 0 0 0 -1 0 -1 0 0 0 0 0 0 0 0 0 0 0 0 0 0 0 0 0 0 0 0 0 0 0 0
-29 -53 -77 -35 -40 -38 0 -1 -5 0 0 0 0 0 0 0 -1 0 -1 0 0 0 0 0 0 0 0 0 0 0 0 0 0 0 0 0 0 0 0 0 0 0 0 0
-46 -41 -31 -85 -58 -80 -3 0 0 0 0 0 0 0 0 -2 0 0 -32 0 0 0 0 0 0 0 0 0 0 0 0 0 0 0 0 0 0 0 0 0 0 0 0 0
-28 -42 -83 -120 -80 0 -20 0 0 0 0 0 0 0 -11 -16 0 -29 0 0 0 0 0 0 0 0 0 0 0 0 0 0 0 0 0 0 0 0 0 0 0 0 0 0
-71 -116 -90 -106 -43 -57 -13 0 0 0 0 0 0 0 -26 0 -31 0 0 0 0 0 0 0 0 0 0 0 0 0 0 0 0 0 0 0 0 -1 0 0 0 0 0 0
Wind_Speed
nan nan nan nan nan nan nan nan nan nan nan nan nan nan 26 48 59 67 70 55 nan nan nan nan nan nan nan nan nan 54 nan 50 nan nan 45 nan 43 nan nan nan nan nan nan nan
nan nan nan nan nan nan nan nan nan nan nan nan nan nan 45 48 56 63 63 63 nan nan nan nan nan nan nan nan nan nan nan nan 48 47 nan nan nan nan nan nan nan nan nan nan
nan nan nan nan nan nan nan nan nan nan nan nan nan 31 40 45 55 58 nan nan nan nan nan nan nan nan nan nan nan nan nan nan nan nan nan nan nan nan nan nan nan nan nan nan
nan nan nan nan nan nan nan nan nan nan nan nan nan nan 37 45 56 nan nan nan nan nan nan nan nan nan nan nan nan nan nan nan nan nan nan nan nan nan nan nan nan nan nan nan
nan nan nan nan nan nan nan nan nan nan nan nan nan nan nan 41 48 nan nan nan nan nan nan nan nan nan nan nan nan nan nan nan nan nan nan nan nan nan nan nan nan nan nan nan
nan nan nan nan nan nan nan nan nan nan nan nan nan nan 29 35 42 nan nan nan nan nan nan nan nan nan nan nan nan nan nan nan nan nan nan nan nan nan nan nan nan nan nan nan
nan nan nan nan nan nan nan nan nan nan nan nan nan 36 36 42 nan nan nan nan nan nan nan nan nan nan nan nan nan nan nan nan nan nan nan nan nan nan nan nan nan nan nan nan
nan nan nan nan nan nan nan nan nan nan nan nan nan 30 33 nan nan nan nan nan nan nan nan nan nan nan nan nan nan nan nan nan nan nan nan nan nan nan nan nan nan nan nan nan
nan nan nan nan nan nan nan nan nan nan nan nan 21 nan nan nan nan nan nan nan nan nan nan nan nan nan nan nan nan nan nan nan nan nan nan nan nan nan nan nan nan nan nan nan
nan nan nan nan nan nan nan nan nan nan nan nan nan nan nan 49 50 nan nan nan nan nan nan nan nan nan nan nan nan nan nan nan nan nan nan nan nan nan nan nan nan nan nan nan
nan nan nan nan nan nan nan nan nan nan nan nan nan nan nan nan nan nan nan nan nan nan nan nan nan nan nan nan nan nan nan nan nan nan nan nan nan nan nan nan nan nan nan nan
nan nan nan nan nan nan nan nan nan nan nan nan nan nan nan nan nan nan nan nan nan nan nan nan nan nan nan nan nan nan nan nan nan nan nan nan nan nan nan nan nan nan nan nan
nan nan nan nan nan nan nan nan nan nan nan nan nan nan nan nan nan nan nan nan nan nan nan nan nan nan nan nan nan nan nan nan nan nan nan nan nan nan nan nan nan nan nan nan
nan nan nan nan nan nan nan nan nan nan nan nan nan nan nan nan nan nan nan nan nan nan nan nan nan nan nan nan nan nan nan nan nan nan nan nan nan nan nan nan nan nan nan nan
nan nan nan nan nan nan nan nan nan nan nan nan nan nan nan nan nan nan nan nan nan nan nan nan nan nan nan nan nan nan nan nan nan nan nan nan nan nan nan nan nan nan nan nan
nan nan nan nan nan nan nan nan nan nan nan nan nan nan nan nan nan nan nan nan nan nan nan nan nan nan nan nan nan nan nan nan nan nan nan nan nan nan nan nan nan nan nan nan
nan nan nan nan nan nan nan nan nan nan nan nan nan nan nan nan nan nan nan nan nan nan nan nan nan nan nan nan nan nan nan nan nan nan nan nan nan nan nan nan nan nan nan nan
nan nan nan nan nan nan nan nan nan nan nan nan nan nan nan nan nan nan nan nan nan nan nan nan nan nan nan nan nan nan nan nan nan nan nan nan nan nan nan nan nan nan nan nan
nan 9 nan nan nan nan nan nan nan nan nan nan nan nan nan nan nan nan nan nan nan nan nan nan nan nan nan nan nan nan nan nan nan nan nan nan nan nan nan nan nan nan nan nan
12 15 nan nan nan nan nan nan nan nan nan nan nan nan nan nan nan nan nan nan nan nan nan nan nan nan nan nan nan nan nan nan nan nan nan nan nan nan nan nan nan nan nan nan
nan nan nan nan nan nan nan nan nan nan nan nan nan nan nan nan nan nan nan nan nan nan nan nan nan nan nan nan nan nan nan nan nan nan nan nan nan nan nan nan nan nan nan nan
nan nan nan nan nan nan nan nan nan nan nan nan nan nan nan nan nan nan nan nan nan nan nan nan nan nan nan nan nan nan nan nan nan nan nan nan nan nan nan nan nan nan nan nan
nan nan nan nan nan nan nan nan nan nan nan nan nan nan nan nan nan nan nan nan nan nan nan nan nan nan nan nan nan nan nan nan nan nan nan nan nan nan nan nan nan nan nan nan
14 nan 23 nan nan nan nan nan nan nan nan nan nan nan nan nan nan nan nan nan nan nan nan nan nan nan nan nan nan nan nan nan nan nan nan nan nan nan nan nan nan nan nan nan
16 22 25 nan nan nan nan nan nan nan nan nan nan nan nan nan nan nan nan nan nan nan nan nan nan nan nan nan nan nan nan nan nan nan nan nan nan nan nan nan nan nan nan nan
nan nan 27 nan nan nan nan nan nan nan nan nan nan nan nan nan nan nan nan nan nan nan nan nan nan nan nan nan nan nan nan nan nan nan nan nan nan nan nan nan nan nan nan nan
Wind_Direction
nan nan nan nan nan nan nan nan nan nan nan nan nan nan 257 264 274 282 284 294 nan nan nan nan nan nan nan nan nan 298 nan 301 nan nan 301 nan 306 nan nan nan nan nan nan nan
nan nan nan nan nan nan nan nan nan nan nan nan nan nan 256 265 275 277 279 287 nan nan nan nan nan nan nan nan nan nan nan nan 301 302 nan nan nan nan nan nan nan nan nan nan
nan nan nan nan nan nan nan nan nan nan nan nan nan 258 264 271 271 268 nan nan nan nan nan nan nan nan nan nan nan nan nan nan nan nan nan nan nan nan nan nan nan nan nan nan
nan nan nan nan nan nan nan nan nan nan nan nan nan nan 276 279 273 nan nan nan nan nan nan nan nan nan nan nan nan nan nan nan nan nan nan nan nan nan nan nan nan nan nan nan
nan nan nan nan nan nan nan nan nan nan nan nan nan nan nan 279 287 nan nan nan nan nan nan nan nan nan nan nan nan nan nan nan nan nan nan nan nan nan nan nan nan nan nan nan
nan nan nan nan nan nan nan nan nan nan nan nan nan nan 272 281 283 nan nan nan nan nan nan nan nan nan nan nan nan nan nan nan nan nan nan nan nan nan nan nan nan nan nan nan
nan nan nan nan nan nan nan nan nan nan nan nan nan 262 267 269 nan nan nan nan nan nan nan nan nan nan nan nan nan nan nan nan nan nan nan nan nan nan nan nan nan nan nan nan
nan nan nan nan nan nan nan nan nan nan nan nan nan 267 279 nan nan nan nan nan nan nan nan nan nan nan nan nan nan nan nan nan nan nan nan nan nan nan nan nan nan nan nan nan
nan nan nan nan nan nan nan nan nan nan nan nan 287 nan nan nan nan nan nan nan nan nan nan nan nan nan nan nan nan nan nan nan nan nan nan nan nan nan nan nan nan nan nan nan
nan nan nan nan nan nan nan nan nan nan nan nan nan nan nan 289 292 nan nan nan nan nan nan nan nan nan nan nan nan nan nan nan nan nan nan nan nan nan nan nan nan nan nan nan
nan nan nan nan nan nan nan nan nan nan nan nan nan nan nan nan nan nan nan nan nan nan nan nan nan nan nan nan nan nan nan nan nan nan nan nan nan nan nan nan nan nan nan nan
nan nan nan nan nan nan nan nan nan nan nan nan nan nan nan nan nan nan nan nan nan nan nan nan nan nan nan nan nan nan nan nan nan nan nan nan nan nan nan nan nan nan nan nan
nan nan nan nan nan nan nan nan nan nan nan nan nan nan nan nan nan nan nan nan nan nan nan nan nan nan nan nan nan nan nan nan nan nan nan nan nan nan nan nan nan nan nan nan
nan nan nan nan nan nan nan nan nan nan nan nan nan nan nan nan nan nan nan nan nan nan nan nan nan nan nan nan nan nan nan nan nan nan nan nan nan nan nan nan nan nan nan nan
nan nan nan nan nan nan nan nan nan nan nan nan nan nan nan nan nan nan nan nan nan nan nan nan nan nan nan nan nan nan nan nan nan nan nan nan nan nan nan nan nan nan nan nan
nan nan nan nan nan nan nan nan nan nan nan nan nan nan nan nan nan nan nan nan nan nan nan nan nan nan nan nan nan nan nan nan nan nan nan nan nan nan nan nan nan nan nan nan
nan nan nan nan nan nan nan nan nan nan nan nan nan nan nan nan nan nan nan nan nan nan nan nan nan nan nan nan nan nan nan nan nan nan nan nan nan nan nan nan nan nan nan nan
nan nan nan nan nan nan nan nan nan nan nan nan nan nan nan nan nan nan nan nan nan nan nan nan nan nan nan nan nan nan nan nan nan nan nan nan nan nan nan nan nan nan nan nan
nan 287 nan nan nan nan nan nan nan nan nan nan nan nan nan nan nan nan nan nan nan nan nan nan nan nan nan nan nan nan nan nan nan nan nan nan nan nan nan nan nan nan nan nan
286 305 nan nan nan nan nan nan nan nan nan nan nan nan nan nan nan nan nan nan nan nan nan nan nan nan nan nan nan nan nan nan nan nan nan nan nan nan nan nan nan nan nan nan
nan nan nan nan nan nan nan nan nan nan nan nan nan nan nan nan nan nan nan nan nan nan nan nan nan nan nan nan nan nan nan nan nan nan nan nan nan nan nan nan nan nan nan nan
nan nan nan nan nan nan nan nan nan nan nan nan nan nan nan nan nan nan nan nan nan nan nan nan nan nan nan nan nan nan nan nan nan nan nan nan nan nan nan nan nan nan nan nan
nan nan nan nan nan nan nan nan nan nan nan nan nan nan nan nan nan nan nan nan nan nan nan nan nan nan nan nan nan nan nan nan nan nan nan nan nan nan nan nan nan nan nan nan
327 nan 325 nan nan nan nan nan nan nan nan nan nan nan nan nan nan nan nan nan nan nan nan nan nan nan nan nan nan nan nan nan nan nan nan nan nan nan nan nan nan nan nan nan
321 315 322 nan nan nan nan nan nan nan nan nan nan nan nan nan nan nan nan nan nan nan nan nan nan nan nan nan nan nan nan nan nan nan nan nan nan nan nan nan nan nan nan nan
nan nan 323 nan nan nan nan nan nan nan nan nan nan nan nan nan nan nan nan nan nan nan nan nan nan nan nan nan nan nan nan nan nan nan nan nan nan nan nan nan nan nan nan nan